This demonstration page uses our WeatherBlox Daily Observations layout. Learn more.

Left ArrowRight Arrow

41.55636, -103.73856

Hourly Observations for February 9, 2015

Temp ( °F °C ) Dew Point ( °F °C ) Humidity (%) Winds ( mph kmh ) Pressure ( in mb ) Visibility ( mi km ) Precip ( " mm )
12:53 am 00:53 Clear 30 -1.1 26 -3.3 85 85 W 3 6 30.14 1021 10 16.0934 0 0
1:53 am 01:53 Clear 31 -0.6 26 -3.3 82 82 Calm 30.14 1021 10 16.0934 0 0
2:53 am 02:53 Clear 30 -1.1 26 -3.3 85 85 N 5 7 30.13 1020 10 16.0934 0 0
3:53 am 03:53 Clear 29 -1.7 26 -3.3 89 89 N 6 9 30.14 1021 10 16.0934 0 0
4:53 am 04:53 Clear 29 -1.7 26 -3.3 89 89 Calm 30.14 1021 10 16.0934 0 0
5:53 am 05:53 Clear 28 -2.2 25 -3.9 88 88 Calm 30.16 1021 10 16.0934 0 0
6:53 am 06:53 Clear 29 -1.7 25 -3.9 85 85 E 8 13 30.14 1021 10 16.0934 0 0
7:53 am 07:53 Sunny 32 0 29 -1.7 88 88 ESE 7 11 30.14 1021 10 16.0934 0 0
8:53 am 08:53 Sunny 40 4.4 32 0 73 73 E 8 13 30.1 1019 10 16.0934 0 0
9:53 am 09:53 Sunny 49 9.4 32 0 52 52 ESE 8 13 30.05 1018 10 16.0934 0 0
10:53 am 10:53 Sunny 55 12.8 33 0.6 44 44 E 9 15 30.01 1016 10 16.0934 0 0
11:53 am 11:53 Sunny 62 16.7 36 2.2 38 38 E 7 11 29.95 1014 10 16.0934 0 0
12:53 pm 12:53 Sunny 69 20.6 29 -1.7 22 22 SSW 9 15 29.86 1011 10 16.0934 0 0
1:53 pm 13:53 Sunny 70 21.1 29 -1.7 22 22 SW 13 20 29.83 1010 10 16.0934 0 0
2:53 pm 14:53 Sunny 70 21.1 27 -2.8 20 20 SSW 13 20 29.81 1010 10 16.0934 0 0
3:53 pm 15:53 Sunny 69 20.6 27 -2.8 21 21 SSW 14 22 29.8 1009 10 16.0934 0 0
4:53 pm 16:53 Mostly Sunny 62 16.7 29 -1.7 29 29 SSE 7 11 29.81 1010 10 16.0934 0 0
5:53 pm 17:53 Mostly Cloudy 60 15.6 29 -1.7 31 31 NW 3 6 29.84 1010 10 16.0934 0 0
6:53 pm 18:53 Clear 51 10.6 31 -0.6 46 46 W 12 19 29.88 1012 10 16.0934 0 0
7:53 pm 19:53 Clear 54 12.2 36 2.2 51 51 WNW 14 22 29.88 1012 10 16.0934 0 0
8:53 pm 20:53 Clear 50 10 32 0 50 50 W 13 20 29.85 1011 10 16.0934 0 0
9:53 pm 21:53 Clear 44 6.7 31 -0.6 60 60 NW 12 19 29.86 1011 10 16.0934 0 0
10:53 pm 22:53 Clear 49 9.4 29 -1.7 46 46 WNW 18 30 29.84 1011 10 16.0934 0 0
11:53 pm 23:53 Clear 48 8.9 30 -1.1 50 50 W 15 24 29.83 1010 10 16.0934 0 0

Powered by AerisWeather